K9MR Weather Reports


time (UTC)temp
C
wind
direction
speed
KPH
gust
KPH
rain 1hr
cm
rain 24hr
cm
rain mn
cm
humidity
%
barometer
mb
20230131224519 -7 186 1.6 3.2 0.00 0.00 0.00 59 999.8
20230131223520 -7 190 1.6 3.2 0.00 0.00 0.00 59 999.8
20230131222520 -6 199 1.6 4.8 0.00 0.00 0.00 56 999.7
20230131221520 -6 155 1.6 3.2 0.00 0.00 0.00 56 999.6
20230131220520 -6 75 1.6 3.2 0.00 0.00 0.00 57 999.4
20230131215520 -6 151 1.6 3.2 0.00 0.00 0.00 56 999.4
20230131214517 -6 101 3.2 6.4 0.00 0.00 0.00 56 999.5
20230131213518 -6 155 1.6 4.8 0.00 0.00 0.00 55 999.5
20230131212520 -6 90 3.2 9.7 0.00 0.00 0.00 55 999.4
20230131211521 -6 75 4.8 8.0 0.00 0.00 0.00 57 999.3
20230131210517 -6 88 4.8 9.7 0.00 0.00 0.00 55 999.3
20230131205518 -6 114 1.6 6.4 0.00 0.00 0.00 56 999.2
20230131204518 -6 103 3.2 9.7 0.00 0.00 0.00 56 999.1
20230131203519 -6 130 3.2 8.0 0.00 0.00 0.00 56 999.1
20230131202518 -6 139 1.6 8.0 0.00 0.00 0.00 58 999.2
20230131201518 -6 132 1.6 6.4 0.00 0.00 0.00 57 999.4
20230131200519 -6 94 3.2 9.7 0.00 0.00 0.00 56 999.5
20230131195519 -6 94 3.2 8.0 0.00 0.00 0.00 56 999.6
20230131194519 -5 99 4.8 9.7 0.00 0.00 0.00 55 999.6
20230131193519 -5 197 4.8 14.5 0.00 0.00 0.00 55 999.5
20230131192519 -5 195 4.8 12.9 0.00 0.00 0.00 54 999.4
20230131191517 -5 173 3.2 12.9 0.00 0.00 0.00 53 999.2
20230131190517 -5 105 4.8 16.1 0.00 0.00 0.00 54 999.1
20230131185520 -5 82 3.2 11.3 0.00 0.00 0.00 56 999.2
20230131184520 -5 78 6.4 11.3 0.00 0.00 0.00 56 999.2
20230131183520 -5 70 4.8 12.9 0.00 0.00 0.00 56 999.1
20230131182520 -4 100 3.2 8.0 0.00 0.00 0.00 57 999.0
20230131181517 -3 94 4.8 11.3 0.00 0.00 0.00 54 999.0
20230131180517 -4 74 4.8 14.5 0.00 0.00 0.00 54 999.1
20230131175518 -4 100 4.8 11.3 0.00 0.00 0.00 55 999.2
20230131174521 -4 81 6.4 14.5 0.00 0.00 0.00 56 999.2
20230131173521 -4 83 4.8 9.7 0.00 0.00 0.00 56 999.2
20230131172518 -4 84 6.4 12.9 0.00 0.00 0.00 55 999.2
20230131171518 -3 76 4.8 11.3 0.00 0.00 0.00 54 999.1
20230131170519 -3 236 3.2 9.7 0.00 0.00 0.00 54 999.2
20230131165519 -4 119 4.8 12.9 0.00 0.00 0.00 56 999.2
20230131164519 -4 167 4.8 17.7 0.00 0.00 0.00 57 999.3
20230131163519 -3 138 3.2 16.1 0.00 0.00 0.00 59 999.5
20230131162519 -3 127 3.2 9.7 0.00 0.00 0.00 57 999.6
20230131161519 -2 203 3.2 9.7 0.00 0.00 0.00 57 999.7
20230131160520 -2 104 6.4 11.3 0.00 0.00 0.00 56 999.6
20230131155520 -2 97 4.8 12.9 0.00 0.00 0.00 55 999.7
20230131154520 -2 86 4.8 12.9 0.00 0.00 0.00 56 999.7
20230131153520 -2 82 8.0 14.5 0.00 0.00 0.00 56 999.7
20230131152517 -1 192 4.8 11.3 0.00 0.00 0.00 58 999.6
20230131151517 -1 93 4.8 14.5 0.00 0.00 0.00 59 999.5
20230131150518 -1 179 4.8 14.5 0.00 0.00 0.00 61 999.3
20230131145518 -2 124 4.8 14.5 0.00 0.00 0.00 64 999.1
20230131144521 -2 102 4.8 11.3 0.00 0.00 0.00 68 998.8
20230131143518 -2 114 4.8 11.3 0.00 0.00 0.00 69 998.6
20230131142518 -3 84 4.8 11.3 0.00 0.00 0.00 73 998.4
20230131141519 -3 99 3.2 8.0 0.00 0.00 0.00 76 998.4
20230131140518 -3 160 1.6 6.4 0.00 0.00 0.00 82 998.3
20230131135519 -3 82 3.2 6.4 0.00 0.00 0.00 78 998.1
20230131134519 -3 108 3.2 8.0 0.00 0.00 0.00 77 997.8
20230131133519 -3 148 4.8 9.7 0.00 0.00 0.00 80 997.7
20230131132519 -3 211 1.6 8.0 0.00 0.00 0.00 81 997.6
20230131131519 -3 146 1.6 4.8 0.00 0.00 0.00 83 997.5
20230131130520 -3 184 3.2 9.7 0.00 0.00 0.00 84 997.4
20230131125520 -3 211 1.6 8.0 0.00 0.00 0.00 84 997.2
20230131124520 -3 128 1.6 6.4 0.00 0.00 0.00 84 996.9
20230131123520 -4 92 1.6 6.4 0.00 0.00 0.00 87 996.7
20230131122517 -4 268 1.6 6.4 0.00 0.00 0.00 90 996.3
20230131121517 -4 218 0.0 3.2 0.00 0.00 0.00 92 996.1
20230131120521 -3 223 0.0 1.6 0.00 0.00 0.00 92 995.8
20230131115521 -3 320 0.0 1.6 0.00 0.00 0.00 93 995.7
20230131114520 -3 0.0 0.0 0.00 0.00 0.00 92 995.6
20230131113518 -3 204 1.6 3.2 0.00 0.00 0.00 92 995.5
20230131112518 -3 211 0.0 3.2 0.00 0.00 0.00 92 995.5
20230131111518 -3 324 0.0 3.2 0.00 0.00 0.00 92 995.5
20230131110518 -3 230 0.0 1.6 0.00 0.00 0.00 91 995.4
20230131105519 -3 15 0.0 1.6 0.00 0.00 0.00 92 995.2
20230131104519 -3 314 0.0 1.6 0.00 0.00 0.00 91 995.3
20230131103519 -3 0.0 0.0 0.00 0.00 0.00 91 995.3
20230131102519 -3 0.0 0.0 0.00 0.00 0.00 90 995.3
20230131101519 -3 0.0 0.0 0.00 0.00 0.00 89 995.3
20230131100519 -3 0.0 0.0 0.00 0.00 0.00 90 995.2
20230131095519 -3 14 0.0 1.6 0.00 0.00 0.00 90 995.3
20230131094519 -3 305 0.0 3.2 0.00 0.00 0.00 90 995.2
20230131093517 -3 344 0.0 1.6 0.00 0.00 0.00 89 995.0
20230131092517 -3 0.0 0.0 0.00 0.00 0.00 90 994.8
20230131091520 -3 0.0 0.0 0.00 0.00 0.00 90 995.0
20230131090520 -3 49 0.0 1.6 0.00 0.00 0.00 89 995.2
20230131085520 -3 0.0 0.0 0.00 0.00 0.00 89 995.2
20230131084518 -3 91 0.0 1.6 0.00 0.00 0.00 89 995.1
20230131083517 -3 174 1.6 3.2 0.00 0.00 0.00 88 995.3
20230131082518 -3 85 1.6 4.8 0.00 0.00 0.00 89 995.5
20230131081518 -3 127 1.6 3.2 0.00 0.00 0.00 89 995.5
20230131080519 -3 69 1.6 4.8 0.00 0.00 0.00 90 995.4
20230131075521 -3 62 1.6 4.8 0.00 0.00 0.00 90 995.5
20230131074518 -3 75 1.6 3.2 0.00 0.00 0.00 89 995.6
20230131073519 -3 54 3.2 6.4 0.00 0.00 0.00 87 995.7
20230131072519 -3 90 1.6 3.2 0.00 0.00 0.00 86 995.6
20230131071519 -3 85 3.2 3.2 0.00 0.00 0.00 87 995.5
20230131070519 -3 86 3.2 6.4 0.00 0.00 0.00 88 995.2
20230131065519 -3 126 1.6 4.8 0.00 0.00 0.00 89 995.1
20230131064519 -3 112 0.0 1.6 0.00 0.00 0.00 89 995.1
20230131063517 -2 193 0.0 3.2 0.00 0.00 0.00 88 995.2
20230131062520 -2 285 1.6 6.4 0.00 0.00 0.00 88 995.1
20230131061520 -2 112 1.6 3.2 0.00 0.00 0.00 89 994.8
20230131060520 -2 79 0.0 1.6 0.00 0.00 0.00 89 994.7
20230131055517 -2 75 0.0 3.2 0.00 0.00 0.00 89 994.6
20230131054517 -2 199 0.0 3.2 0.00 0.00 0.00 89 994.7
20230131053517 -2 77 1.6 1.6 0.00 0.00 0.00 89 994.8
20230131052518 -2 103 1.6 3.2 0.00 0.00 0.00 88 994.8
20230131051518 -2 74 0.0 1.6 0.00 0.00 0.00 88 994.8
20230131050518 -2 68 1.6 3.2 0.00 0.00 0.00 89 994.9
20230131045518 -2 143 0.0 3.2 0.00 0.00 0.00 89 994.8
20230131044518 -2 145 0.0 1.6 0.00 0.00 0.00 89 995.0
20230131043519 -2 122 1.6 4.8 0.00 0.00 0.00 89 995.0
20230131042519 -2 97 0.0 1.6 0.00 0.00 0.00 90 995.1
20230131041519 -2 100 1.6 4.8 0.00 0.00 0.00 89 995.2
20230131040516 -2 87 1.6 3.2 0.00 0.00 0.00 88 995.4
20230131035519 -2 198 1.6 3.2 0.00 0.00 0.00 88 995.6
20230131034519 -2 82 3.2 4.8 0.00 0.00 0.00 87 995.6
20230131033520 -2 38 1.6 6.4 0.00 0.00 0.00 88 995.5
20230131032520 -2 98 1.6 4.8 0.00 0.00 0.00 89 995.4
20230131031517 -2 140 1.6 4.8 0.00 0.00 0.00 91 995.2
20230131030517 -2 119 1.6 4.8 0.00 0.00 0.00 91 995.2
20230131025517 -1 74 3.2 6.4 0.00 0.00 0.00 90 995.3
20230131024518 -1 79 1.6 3.2 0.00 0.00 0.00 91 995.1
20230131023518 -1 72 1.6 4.8 0.00 0.00 0.00 91 995.1
20230131022518 -1 61 1.6 6.4 0.00 0.00 0.00 91 995.2
20230131021518 -1 105 1.6 3.2 0.00 0.00 0.00 92 994.9
20230131020518 -1 108 1.6 3.2 0.00 0.00 0.00 91 995.0
20230131015518 -1 206 0.0 3.2 0.00 0.00 0.00 92 994.8
20230131014518 -1 107 0.0 4.8 0.00 0.00 0.00 94 993.9
20230131013519 -1 64 0.0 1.6 0.00 0.00 0.00 95 993.3
20230131012519 0 89 1.6 3.2 0.00 0.00 0.00 94 993.7
20230131011519 0 171 0.0 1.6 0.00 0.00 0.00 94 993.8
20230131010519 0 0.0 0.0 0.00 0.00 0.00 94 993.7
20230131005519 0 130 0.0 3.2 0.00 0.00 0.00 93 994.1
20230131004519 0 0.0 0.0 0.00 0.00 0.00 94 994.0
20230131003519 0 175 0.0 3.2 0.00 0.00 0.00 94 993.8
20230131002519 0 135 1.6 3.2 0.00 0.00 0.00 95 993.7
20230131001520 0 119 1.6 3.2 0.00 0.00 0.00 95 993.4
20230131000521 0 90 0.0 1.6 0.00 0.00 0.00 95 993.1
20230130235520 0 86 0.0 1.6 0.00 0.00 0.00 95 993.0
20230130234520 0 73 0.0 1.6 0.00 0.00 0.00 95 993.0
20230130233520 0 0.0 0.0 0.00 0.00 0.00 95 993.1
20230130232518 0 0.0 0.0 0.00 0.00 0.00 95 993.1
20230130231518 0 0.0 0.0 0.00 0.00 0.00 95 993.2
20230130230518 0 0.0 0.0 0.00 0.00 0.00 94 993.5
20230130225518 0 64 0.0 1.6 0.00 0.00 0.00 94 993.4